TimeCST,TemperatureF,Dew PointF,Humidity,Sea Level PressureIn,VisibilityMPH,Wind Direction,Wind SpeedMPH,Gust SpeedMPH,PrecipitationIn,Events,Conditions,WindDirDegrees,DateUTC
12:53 AM,-15.0,-20.9,75,30.22,10.0,Calm,Calm,-,N/A,,Overcast,0,2013-01-23 06:53:00
1:53 AM,-16.1,-22.0,74,30.21,10.0,Calm,Calm,-,N/A,,Overcast,0,2013-01-23 07:53:00
2:53 AM,-15.0,-20.9,75,30.22,10.0,Calm,Calm,-,N/A,,Overcast,0,2013-01-23 08:53:00
3:53 AM,-11.9,-18.0,74,30.19,5.0,Calm,Calm,-,0.00,Snow,Light Snow,0,2013-01-23 09:53:00
4:53 AM,-7.1,-13.0,75,30.18,4.0,SSW,5.8,-,0.00,Snow,Light Snow,200,2013-01-23 10:53:00
5:53 AM,-6.0,-11.9,75,30.16,7.0,SSW,3.5,-,0.00,,Overcast,200,2013-01-23 11:53:00
6:53 AM,-5.1,-9.9,80,30.16,3.0,Calm,Calm,-,0.00,Snow,Light Snow,0,2013-01-23 12:53:00
7:53 AM,-2.0,-8.0,76,30.14,3.0,SW,3.5,-,0.00,Snow,Light Snow,230,2013-01-23 13:53:00
8:53 AM,1.0,-6.0,72,30.16,10.0,WNW,9.2,-,0.00,,Scattered Clouds,300,2013-01-23 14:53:00
9:22 AM,1.4,-7.6,66,30.03,10.0,WNW,16.1,21.9,N/A,,Mostly Cloudy,300,2013-01-23 15:22:00
9:40 AM,1.4,-7.6,66,30.04,1.8,NW,20.7,27.6,N/A,Snow,Blowing Snow,310,2013-01-23 15:40:00
9:50 AM,1.4,-7.6,66,30.05,2.0,NW,19.6,-,N/A,Snow,Blowing Snow,310,2013-01-23 15:50:00
9:53 AM,-0.0,-7.1,72,30.19,2.0,NW,20.7,26.5,N/A,Snow,Blowing Snow,310,2013-01-23 15:53:00
10:10 AM,-0.4,-7.6,72,30.06,1.5,NW,20.7,28.8,N/A,Snow,Blowing Snow,310,2013-01-23 16:10:00
10:53 AM,-0.0,-9.9,63,30.23,1.2,NW,23.0,26.5,N/A,Snow,Blowing Snow,310,2013-01-23 16:53:00
11:31 AM,-2.2,-11.2,66,30.11,0.8,NW,26.5,33.4,0.00,,Overcast,320,2013-01-23 17:31:00
11:53 AM,-2.9,-11.9,65,30.26,0.8,NNW,25.3,33.4,0.00,,Overcast,330,2013-01-23 17:53:00
12:04 PM,-2.2,-11.2,66,30.12,1.0,NW,24.2,31.1,0.00,,Overcast,320,2013-01-23 18:04:00
12:16 PM,-2.2,-13.0,60,30.13,0.5,NW,28.8,35.7,0.00,,Overcast,320,2013-01-23 18:16:00
12:39 PM,-4.0,-14.8,60,30.15,1.2,NW,23.0,29.9,0.00,,Haze,320,2013-01-23 18:39:00
12:53 PM,-4.0,-14.1,62,30.30,1.2,NW,26.5,32.2,0.00,,Haze,310,2013-01-23 18:53:00
12:58 PM,-4.0,-13.0,65,30.16,0.8,NNW,21.9,32.2,0.00,Snow,Light Snow,330,2013-01-23 18:58:00
1:04 PM,-4.0,-13.0,65,30.16,1.0,NNW,20.7,32.2,0.00,Snow,Light Snow,340,2013-01-23 19:04:00
1:17 PM,-4.0,-14.8,60,30.17,2.0,NNW,23.0,-,0.00,,Overcast,330,2013-01-23 19:17:00
1:27 PM,-5.8,-14.8,65,30.18,1.8,NNW,23.0,27.6,0.00,,Overcast,340,2013-01-23 19:27:00
1:53 PM,-5.1,-15.0,62,30.35,1.5,NNW,23.0,31.1,0.00,,Haze,340,2013-01-23 19:53:00
2:04 PM,-5.8,-16.6,60,30.21,3.0,NNW,21.9,28.8,N/A,,Haze,330,2013-01-23 20:04:00
2:11 PM,-5.8,-16.6,60,30.21,2.0,NNW,24.2,29.9,N/A,,Haze,330,2013-01-23 20:11:00
2:34 PM,-5.8,-16.6,60,30.24,3.0,NNW,24.2,28.8,N/A,,Haze,340,2013-01-23 20:34:00
2:39 PM,-5.8,-16.6,60,30.24,2.5,NNW,24.2,29.9,N/A,,Haze,330,2013-01-23 20:39:00
2:53 PM,-5.1,-17.0,57,30.40,1.5,NW,26.5,32.2,N/A,,Haze,310,2013-01-23 20:53:00
3:05 PM,-5.8,-16.6,60,30.26,2.0,NNW,23.0,29.9,N/A,,Haze,340,2013-01-23 21:05:00
3:14 PM,-5.8,-18.4,55,30.27,6.0,NNW,19.6,26.5,N/A,,Haze,330,2013-01-23 21:14:00
3:53 PM,-5.1,-18.9,51,30.44,10.0,NNW,17.3,25.3,N/A,,Scattered Clouds,340,2013-01-23 21:53:00
4:28 PM,-5.8,-18.4,55,30.34,9.0,NNW,13.8,24.2,N/A,,Mostly Cloudy,340,2013-01-23 22:28:00
4:39 PM,-7.6,-18.4,59,30.34,10.0,NNW,13.8,-,N/A,,Scattered Clouds,340,2013-01-23 22:39:00
4:53 PM,-7.1,-18.9,56,30.49,10.0,NNW,13.8,-,N/A,,Scattered Clouds,330,2013-01-23 22:53:00
5:53 PM,-9.0,-20.0,59,30.54,10.0,NW,11.5,-,N/A,,Clear,320,2013-01-23 23:53:00
6:14 PM,-9.4,-20.2,59,30.42,10.0,NW,15.0,-,N/A,,Mostly Cloudy,320,2013-01-24 00:14:00
6:53 PM,-9.9,-20.0,61,30.59,10.0,NNW,15.0,-,N/A,,Scattered Clouds,330,2013-01-24 00:53:00
7:53 PM,-11.9,-22.0,61,30.61,10.0,NNW,9.2,-,N/A,,Clear,340,2013-01-24 01:53:00
8:53 PM,-13.0,-22.0,64,30.63,10.0,NNW,8.1,-,N/A,,Clear,340,2013-01-24 02:53:00
9:53 PM,-14.1,-23.1,64,30.65,10.0,North,6.9,-,N/A,,Clear,350,2013-01-24 03:53:00
10:53 PM,-15.0,-24.0,64,30.66,10.0,North,5.8,-,N/A,,Clear,360,2013-01-24 04:53:00
11:53 PM,-20.0,-27.0,70,30.71,10.0,NNW,6.9,-,N/A,,Clear,330,2013-01-24 05:53:00